"Pseudo-MPEC" for P11K1GY

Created 2023 Sep 20 17:22:29 UT using Find_Orb

Click here for an explanation of pseudo-MPECs

 
 Astrometry: 
     P11K1GY  C2023 09 19Jn\p3gXGf.5Ow'',3YUd]M`[rR7JN/tCEE03#1Se\(cH;C#YZPsRF51
     P11K1GY  C2023 09 192F+#p32D01itDF+Q1,3MhQP)NS=b^6:J6E',3m+C$NIu#T`chhQ?F51
     P11K1GY* C2023 09 195mKRUcBI3Yo:?(-$%2SCAstrometry5(!Chd1V*Nredacted;+Q7F51
     P11K1GY  C2023 09 19,cYVQl%EfaSjf?wd.%?Qn)=$yGS*y-u_J/oU!N!Aclick5here.2F51
     P11K1GY KC2023 09 19V'ct5i9@7v]oP_H4^/0w4?mitAj1x(g%k;n4.iK*AZeCo#-%UAxHF52
     P11K1GY KC2023 09 20drCU4.-Ogbj5vx$H]_C=$@f\ME7nC9forYp6h*EO!t=e,9=d;I8rH21
     P11K1GY KC2023 09 20NY8d,^!U[:hQPV6O_kJ.5b!,L=-vUY$hqhu/iPEexplanation]vH21

Station data:
(F51) Pan-STARRS 1, Haleakala  (N20.707234 W156.255910)  US/Hawaii.
   Observers J. Bulger, T. Lowe, A. Schultz, M. Willman. Measurers K.
   Chambers, S. Chastel, T. de Boer, L. Denneau, J. Fairlamb, H. Flewelling,
   M. Huber, C.-C. Lin, E. Magnier, Y. Ramanjooloo, R. Wainscoat, R. Weryk.
   1.8-m Ritchey-Chrétien + CCD.
(F52) Pan-STARRS 2, Haleakala  (N20.707382 W156.255910)  US/Hawaii.
   Observers J. Bulger, T. Dukes, T. Lowe, A. Schultz, M. Willman. Measurers
   K. Chambers, S. Chastel, T. de Boer, L. Denneau, J. Fairlamb, H.
   Flewelling, M. Huber, C.-C. Lin, E. Magnier, Y. Ramanjooloo, R. Wainscoat,
   R. Weryk. 1.8-m Ritchey-Chrétien + CCD.
(H21) Astronomical Research Observatory, Westfield  (N39.483054 W87.968270)
   US/Illinois.  Observer R. Holmes. Measurers S. Foglia, L. Buzzi, T.
   Linder, R. Holmes. 0.76-m f/3.0 astrograph + CCD0.81-m f/4.0 astrograph +
   CCD0.61-m f/4.5 astrograph + CCD0.40-m f/5.32 astrograph + CCD.

Orbital elements:  P11K1GY
   Perihelion 2023 Sep 23.60134 +/- 11.2 TT = 14:25:56 (JD 2460211.10134)
Epoch 2023 Sep 20.0 TT = JDT 2460207.5   Earth MOID: 0.3311   Ma: 0.0451
M 359.06232255 +/- 3.0              (J2000 ecliptic)             AutoNEOCP
n   0.26036867 +/- 0.0462           Peri.   57.99065 +/- 12
a   2.42890328 +/- 0.287            Node   313.40899 +/- 3.8
e   0.4526156 +/- 0.0656            Incl.    2.28089 +/- 0.08
P   3.79                   H 22.73  G  0.15   U 10.7
q 1.32954365 +/- 0.00523    Q 3.52826290 +/- 0.576
From 7 observations 2023 Sept. 19-20 (20.7 hr); mean residual 0".09
Residuals in arcseconds: 
230919 F51  .05+  .02-    230919 F51  .05+  .12-    230920 H21  .05-  .09+    
230919 F51  .09-  .22+    230919 F52  .00   .03+    
230919 F51  .01-  .12-    230920 H21  .06+  .10-    

Ephemerides (geocentric):
Date (UTC) HH   RA             Dec           delta  r     elong  mag " sig PA
---- --------  ------------   ------------  ------ ------ -----  --- --------
2023 09 20 17  02 22 40.799   +20 42 43.16  .40687 1.3299 136.6 22.7 1.34  61
2023 09 20 18  02 22 44.466   +20 43 15.42  .40678 1.3299 136.7 22.7 1.54  60
2023 09 20 19  02 22 48.129   +20 43 47.64  .40668 1.3298 136.7 22.7 1.75  60
2023 09 20 20  02 22 51.787   +20 44 19.84  .40658 1.3298 136.7 22.7 1.96  60
2023 09 20 21  02 22 55.441   +20 44 52.00  .40648 1.3298 136.7 22.7 2.19  60
2023 09 20 22  02 22 59.091   +20 45 24.13  .40638 1.3298 136.8 22.7 2.43  60
2023 09 20 23  02 23 02.736   +20 45 56.23  .40629 1.3298 136.8 22.7 2.68  60
2023 09 21 00  02 23 06.377   +20 46 28.29  .40619 1.3298 136.8 22.7 2.94  59
2023 09 21 01  02 23 10.014   +20 47 00.32  .40609 1.3298 136.8 22.7 3.21  59
2023 09 21 02  02 23 13.647   +20 47 32.32  .40600 1.3298 136.9 22.7 3.49  59
2023 09 21 03  02 23 17.276   +20 48 04.29  .40590 1.3298 136.9 22.7 3.78  59
2023 09 21 04  02 23 20.900   +20 48 36.22  .40580 1.3298 136.9 22.7 4.08  59
2023 09 21 05  02 23 24.520   +20 49 08.12  .40571 1.3298 136.9 22.7 4.39  59
2023 09 21 06  02 23 28.135   +20 49 39.99  .40561 1.3298 137.0 22.7 4.71  59
2023 09 21 07  02 23 31.746   +20 50 11.82  .40552 1.3297 137.0 22.7 5.04  59
2023 09 21 08  02 23 35.353   +20 50 43.62  .40542 1.3297 137.0 22.7 5.38  59
2023 09 21 09  02 23 38.956   +20 51 15.39  .40532 1.3297 137.0 22.7 5.73  59
2023 09 21 10  02 23 42.554   +20 51 47.12  .40523 1.3297 137.0 22.7 6.09  59
2023 09 21 11  02 23 46.149   +20 52 18.82  .40513 1.3297 137.1 22.7 6.46  59
2023 09 21 12  02 23 49.738   +20 52 50.49  .40504 1.3297 137.1 22.7 6.84  59
2023 09 21 13  02 23 53.324   +20 53 22.12  .40494 1.3297 137.1 22.7 7.23  59
2023 09 21 14  02 23 56.905   +20 53 53.73  .40485 1.3297 137.1 22.7 7.63  59
2023 09 21 15  02 24 00.482   +20 54 25.29  .40475 1.3297 137.2 22.7 8.05  59
2023 09 21 16  02 24 04.054   +20 54 56.83  .40466 1.3297 137.2 22.7 8.47  59
2023 09 21 17  02 24 07.622   +20 55 28.33  .40456 1.3297 137.2 22.7 8.90  59
2023 09 21 18  02 24 11.186   +20 55 59.80  .40447 1.3297 137.2 22.7 9.34  59
2023 09 21 19  02 24 14.746   +20 56 31.23  .40438 1.3297 137.3 22.7 9.80  59
2023 09 21 20  02 24 18.301   +20 57 02.64  .40428 1.3297 137.3 22.7 10.3  59
2023 09 21 21  02 24 21.852   +20 57 34.01  .40419 1.3297 137.3 22.7 10.7  59
2023 09 21 22  02 24 25.398   +20 58 05.34  .40409 1.3297 137.3 22.7 11.2  59
2023 09 21 23  02 24 28.940   +20 58 36.64  .40400 1.3296 137.4 22.7 11.7  59
2023 09 22 00  02 24 32.478   +20 59 07.91  .40391 1.3296 137.4 22.7 12.2  59
2023 09 22 01  02 24 36.012   +20 59 39.15  .40381 1.3296 137.4 22.7 12.7  59
2023 09 22 02  02 24 39.541   +21 00 10.35  .40372 1.3296 137.4 22.7 13.2  59
2023 09 22 03  02 24 43.065   +21 00 41.51  .40363 1.3296 137.5 22.7 13.8  59
2023 09 22 04  02 24 46.586   +21 01 12.65  .40354 1.3296 137.5 22.7 14.3  59
2023 09 22 05  02 24 50.102   +21 01 43.75  .40344 1.3296 137.5 22.7 14.9  59
2023 09 22 06  02 24 53.614   +21 02 14.82  .40335 1.3296 137.5 22.7 15.4  59
2023 09 22 07  02 24 57.121   +21 02 45.85  .40326 1.3296 137.6 22.7 16.0  59
2023 09 22 08  02 25 00.624   +21 03 16.85  .40317 1.3296 137.6 22.7 16.6  59
2023 09 22 09  02 25 04.122   +21 03 47.82  .40308 1.3296 137.6 22.7 17.2  59
2023 09 22 10  02 25 07.616   +21 04 18.75  .40298 1.3296 137.6 22.7 17.8  59
2023 09 22 11  02 25 11.106   +21 04 49.65  .40289 1.3296 137.6 22.7 18.4  59
2023 09 22 12  02 25 14.591   +21 05 20.51  .40280 1.3296 137.7 22.7 19.0  59
2023 09 22 13  02 25 18.072   +21 05 51.35  .40271 1.3296 137.7 22.7 19.7  59
2023 09 22 14  02 25 21.549   +21 06 22.14  .40262 1.3296 137.7 22.7 20.3  59
2023 09 22 15  02 25 25.021   +21 06 52.91  .40253 1.3296 137.7 22.7 21.0  59
2023 09 22 16  02 25 28.489   +21 07 23.64  .40244 1.3296 137.8 22.7 21.6  59